This demonstration page uses our WeatherBlox Daily Observations layout. Learn more.

Hourly Observations for April 5, 2016

Temp ( °F °C ) Dew Point ( °F °C ) Humidity (%) Winds ( mph kmh ) Pressure ( in mb ) Visibility ( mi km ) Precip ( " mm )
12:15 am 00:15 Clear 49 9.4 30 -1.2 48 48 SE 14 22 30.15 1021 10 16.0934 0 0
12:35 am 00:35 Clear 49 9.5 29 -1.5 47 47 SE 14 22 30.15 1021 10 16.0934 0 0
12:55 am 00:55 Clear 49 9.3 29 -1.5 47 47 SE 13 20 30.15 1021 10 16.0934 0 0
1:15 am 01:15 Clear 48 8.8 29 -1.5 49 49 SE 13 20 30.12 1020 10 16.0934 0 0
1:35 am 01:35 Clear 46 8 29 -1.5 51 51 SSE 10 17 30.12 1020 10 16.0934 0 0
1:55 am 01:55 Clear 46 7.8 30 -1.3 53 53 SE 10 17 30.12 1020 10 16.0934 0 0
2:15 am 02:15 Clear 46 8 30 -1.2 53 53 SSE 12 19 30.12 1020 10 16.0934 0 0
2:35 am 02:35 Clear 47 8.2 30 -1.1 52 52 SSE 12 19 30.12 1020 10 16.0934 0 0
2:55 am 02:55 Clear 48 8.8 30 -1 51 51 SSE 15 24 30.09 1019 10 16.0934 0 0
3:15 am 03:15 Clear 48 8.9 30 -1 50 50 SSE 14 22 30.09 1019 10 16.0934 0 0
3:35 am 03:35 Clear 48 9 30 -1 50 50 SSE 14 22 30.09 1019 7 11.26538 0 0
3:55 am 03:55 Clear 48 8.7 31 -0.7 52 52 SSE 15 24 30.06 1018 7 11.26538 0 0
4:15 am 04:15 Clear 47 8.6 31 -0.7 52 52 SSE 16 26 30.06 1018 7 11.26538 0 0
4:35 am 04:35 Clear 47 8.6 31 -0.5 53 53 SSE 17 28 30.06 1018 7 11.26538 0 0
4:55 am 04:55 Clear 47 8.6 31 -0.3 54 54 SSE 14 22 30.06 1018 7 11.26538 0 0
5:15 am 05:15 Clear 47 8.5 32 -0.2 55 55 SSE 14 22 30.03 1017 7 11.26538 0 0
5:35 am 05:35 Clear 47 8.5 32 0 55 55 SSE 14 22 30.03 1017 7 11.26538 0 0
5:55 am 05:55 Clear 47 8.5 32 0 55 55 SSE 13 20 30.03 1017 7 11.26538 0 0
6:15 am 06:15 Clear 47 8.5 32 0 55 55 SSE 12 19 30.03 1017 7 11.26538 0 0
6:35 am 06:35 Clear 47 8.6 32 0.1 55 55 S 13 20 30.03 1017 7 11.26538 0 0
6:55 am 06:55 Clear 47 8.6 32 0.2 56 56 S 15 24 30 1016 7 11.26538 0 0
7:15 am 07:15 Sunny 48 8.7 33 0.5 57 57 S 15 24 30 1016 7 11.26538 0 0
7:35 am 07:35 Hazy 47 8.5 33 0.6 58 58 S 13 20 30 1016 5 8.0467 0 0
7:55 am 07:55 Hazy 47 8.6 33 0.7 58 58 S 12 19 30.03 1017 5 8.0467 0 0
8:15 am 08:15 Hazy 48 8.8 34 1 58 58 SSE 13 20 30 1016 5 8.0467 0 0
8:35 am 08:35 Hazy 49 9.3 34 1.3 58 58 SSE 15 24 29.97 1015 5 8.0467 0 0
8:55 am 08:55 Hazy 51 10.3 35 1.5 55 55 SSE 21 33 29.94 1014 5 8.0467 0 0
9:15 am 09:15 Sunny 52 11.1 35 1.5 52 52 SSE 21 33 29.94 1014 7 11.26538 0 0
9:35 am 09:35 Sunny 54 12.1 35 1.7 49 49 SSE 20 31 29.88 1012 7 11.26538 0 0
9:55 am 09:55 Sunny 55 12.8 35 1.7 47 47 SSE 18 30 29.88 1012 7 11.26538 0 0
10:15 am 10:15 Sunny 55 13 35 1.4 45 45 S 16 26 29.88 1012 10 16.0934 0 0
10:35 am 10:35 Sunny 57 14.1 35 1.5 43 43 S 22 35 29.88 1012 10 16.0934 0 0
10:55 am 10:55 Sunny 59 15.1 35 1.7 41 41 S 18 30 29.85 1011 10 16.0934 0 0
11:15 am 11:15 Sunny 62 16.4 35 1.8 38 38 S 20 31 29.83 1010 10 16.0934 0 0
11:35 am 11:35 Sunny 62 16.5 35 1.9 38 38 S 18 30 29.83 1010 10 16.0934 0 0
11:55 am 11:55 Sunny 64 17.6 35 1.8 35 35 SSW 14 22 29.83 1010 10 16.0934 0 0
12:15 pm 12:15 Sunny 64 17.9 36 2 35 35 SSW 17 28 29.8 1009 10 16.0934 0 0
12:35 pm 12:35 Sunny 66 19 36 2.2 33 33 SW 13 20 29.77 1008 10 16.0934 0 0
12:55 pm 12:55 Sunny 68 19.8 36 2.3 31 31 SW 8 13 29.74 1007 10 16.0934 0 0
1:15 pm 13:15 Sunny 68 20.1 35 1.8 30 30 WSW 7 11 29.74 1007 10 16.0934 0 0
1:35 pm 13:35 Sunny 71 21.5 36 2.3 28 28 WSW 5 7 29.71 1006 10 16.0934 0 0
1:55 pm 13:55 Sunny 71 21.6 35 1.5 27 27 WNW 6 9 29.68 1005 10 16.0934 0 0
2:15 pm 14:15 Sunny 71 21.7 35 1.4 26 26 NW 5 7 29.68 1005 10 16.0934 0 0
2:35 pm 14:35 Sunny 73 22.6 34 1.1 24 24 NNW 13 20 29.68 1005 10 16.0934 0 0
2:55 pm 14:55 Sunny 73 22.6 34 1.2 24 24 Calm 29.68 1005 10 16.0934 0 0
3:15 pm 15:15 Sunny 73 22.8 34 1 24 24 N 6 9 29.68 1005 10 16.0934 0 0
3:35 pm 15:35 Sunny 73 22.6 33 0.5 23 23 NNW 9 15 29.68 1005 10 16.0934 0 0
3:55 pm 15:55 Sunny 73 22.5 33 0.7 24 24 NW 10 17 29.68 1005 10 16.0934 0 0
4:15 pm 16:15 Sunny 72 22.2 32 0.1 23 23 N 12 19 29.68 1005 10 16.0934 0 0
4:35 pm 16:35 Sunny 72 22.2 33 0.5 24 24 NNW 8 13 29.68 1005 10 16.0934 0 0
4:55 pm 16:55 Sunny 71 21.9 33 0.3 24 24 N 13 20 29.68 1005 10 16.0934 0 0
5:15 pm 17:15 Partly Cloudy 71 21.5 33 0.5 25 25 N 13 20 29.68 1005 10 16.0934 0 0
5:35 pm 17:35 Mostly Cloudy 69 20.7 35 1.6 28 28 N 18 30 29.71 1006 10 16.0934 0 0
5:55 pm 17:55 Mostly Cloudy 68 20.1 35 1.8 30 30 N 16 26 29.71 1006 10 16.0934 0 0
6:15 pm 18:15 Cloudy 67 19.5 37 2.5 32 32 NNW 16 26 29.74 1007 10 16.0934 0 0
6:35 pm 18:35 Cloudy 64 17.6 35 1.7 35 35 NNW 17 28 29.77 1008 10 16.0934 0 0
6:55 pm 18:55 Cloudy 63 17.2 33 0.7 33 33 NW 20 31 29.77 1008 10 16.0934 0 0
7:15 pm 19:15 Cloudy 62 16.8 33 0.5 33 33 NW 36 57 29.8 1009 10 16.0934 0 0
7:35 pm 19:35 Cloudy 58 14.5 38 3.1 47 47 WNW 20 31 29.8 1009 10 16.0934 0 0
7:55 pm 19:55 Cloudy with Light Drizzle 56 13.2 41 4.8 57 57 WNW 12 19 29.83 1010 10 16.0934 0 0
8:15 pm 20:15 Cloudy 55 13 40 4.6 57 57 W 8 13 29.8 1009 10 16.0934 0 0
8:35 pm 20:35 Cloudy 56 13.6 38 3.2 50 50 WSW 7 11 29.8 1009 10 16.0934 0 0
8:55 pm 20:55 Cloudy 56 13.6 37 2.9 49 49 W 9 15 29.83 1010 10 16.0934 0 0
9:15 pm 21:15 Cloudy 55 13 38 3.3 52 52 W 9 15 29.83 1010 10 16.0934 0 0
9:35 pm 21:35 Mostly Cloudy 55 13 38 3.5 53 53 W 13 20 29.85 1011 10 16.0934 0 0
9:55 pm 21:55 Partly Cloudy 55 12.5 37 2.9 52 52 WNW 9 15 29.83 1010 10 16.0934 0 0
10:15 pm 22:15 Mostly Cloudy 54 12.2 36 2.3 51 51 W 9 15 29.85 1011 10 16.0934 0 0
10:55 pm 22:55 Partly Cloudy 53 11.7 32 0 45 45 W 12 19 29.85 1011 10 16.0934 0 0
11:15 pm 23:15 Clear 52 11.3 32 -0.2 45 45 W 13 20 29.88 1012 10 16.0934 0 0
11:35 pm 23:35 Clear 54 12 24 -4.7 31 31 NW 28 44 29.83 1010 10 16.0934 0 0
11:55 pm 23:55 Clear 53 11.4 24 -4.6 33 33 NW 28 44 29.85 1011 10 16.0934 0 0

Powered by AerisWeather